Location: Boiro
(42.6475°N, 8.8834°W)
Time: 09:42:21
(UTC+01:00)

Transit 4A - Pass Details

Date: 28 September 2023
Orbit: 864 x 979 km, 66.8° (Epoch: 02 December)

Event Time Altitude Azimuth Distance (km) Brightness Sun altitude
Rises 21:04:25 0° 335° (NNW) 3,684 11.5 -8.5°
Reaches altitude 10° 21:07:49 10° 352° (N) 2,724 10.5 -9.1°
Maximum altitude 21:12:20 20° 37° (NE) 2,083 9.5 -9.9°
Enters shadow 21:16:12 12° 79° (E) 2,547 9.6 -10.6°
